Stations météo

Publicité
Cap Bear, France (7749): Température de l'air & dewpoint: 16.01.2019 03:00:00 - 22.01.2019 03:00:00 (CET)Cap Bear, France (7749): Vitesse du vent & gusts: 16.01.2019 03:00:00 - 22.01.2019 03:00:00 (CET)Cap Bear, France (7749): Direction du vent: 16.01.2019 03:00:00 - 22.01.2019 03:00:00 (CET)Cap Bear, France (7749): reduced air pressure: 16.01.2019 03:00:00 - 22.01.2019 03:00:00 (CET)Cap Bear, France (7749): visibility: 16.01.2019 03:00:00 - 22.01.2019 03:00:00 (CET)Cap Bear, France (7749): Quantités de précipitations: 16.01.2019 03:00:00 - 22.01.2019 03:00:00 (CET)
Date & Time tt [°C] td [°C] ff [km/h] ff [knt] fx [km/h] fx [knt] dd ppp [hPa] vv [km] rr [mm]
22.01.2019 03:00:00 5,5 -0,1 62 34 98 53 NNW 1015,4 - 0,0
22.01.2019 02:00:00 5,6 -0,1 78 42 99 53 NNW 1015,0 - 0,0
22.01.2019 01:00:00 5,7 0,0 69 37 89 48 NNW 1016,2 - 0,0
22.01.2019 00:00:00 5,8 -1,1 70 38 99 53 NW 1017,2 - 0,0
21.01.2019 23:00:00 6,4 -1,5 78 42 96 52 NW 1016,9 - 0,0
21.01.2019 22:00:00 6,9 0,6 82 45 118 64 NNW 1016,3 - 0,0
21.01.2019 21:00:00 6,9 0,3 84 46 105 57 NW 1016,5 - 0,0
21.01.2019 20:00:00 7,2 0,4 76 41 105 57 NW 1016,7 - 0,0
21.01.2019 19:00:00 7,9 1,7 81 44 100 54 NNW 1015,9 20 0,0
21.01.2019 18:00:00 8,0 1,4 74 40 104 56 NW 1016,1 - 0,0
21.01.2019 17:00:00 8,2 0,9 82 45 104 56 NW 1015,7 - 0,0
21.01.2019 16:00:00 8,5 1,2 70 38 97 53 NW 1015,7 25 0,0
21.01.2019 15:00:00 9,1 1,5 65 35 91 49 NW 1015,8 - 0,0
21.01.2019 14:00:00 9,0 1,9 71 39 94 51 NW 1015,9 - 0,0
21.01.2019 13:00:00 9,0 2,5 70 38 87 47 NNW 1016,0 - 0,0
21.01.2019 12:00:00 8,7 2,5 65 35 85 46 NNW 1017,1 - 0,0
21.01.2019 11:00:00 8,6 3,2 55 30 67 36 NNW 1016,7 - 0,0
21.01.2019 10:00:00 8,0 3,3 51 28 64 35 NW 1016,7 - 0,0
21.01.2019 09:00:00 7,2 2,7 31 17 52 28 NW 1017,0 - 0,0
21.01.2019 08:00:00 7,0 2,7 29 15 53 29 NW 1016,5 - 0,0
21.01.2019 07:00:00 6,9 2,8 38 20 57 31 NW 1015,9 20 0,0
21.01.2019 06:00:00 6,9 2,8 36 19 57 31 NW 1015,6 - 0,0
21.01.2019 05:00:00 7,5 3,4 39 21 59 32 NW 1015,0 - 0,0
21.01.2019 04:00:00 7,8 3,6 41 22 57 31 NW 1014,5 - 0,0
21.01.2019 03:00:00 7,9 3,7 40 22 61 33 NW 1014,9 - 0,0
21.01.2019 02:00:00 7,8 3,5 35 19 53 28 NW 1015,1 - 0,0
21.01.2019 01:00:00 7,3 3,3 30 16 55 30 NW 1015,4 - 0,0
21.01.2019 00:00:00 7,4 3,4 32 17 48 26 NW 1015,3 - 0,0
20.01.2019 23:00:00 6,9 4,4 25 13 37 20 NW 1015,1 - 0,0
20.01.2019 22:00:00 7,0 5,1 29 16 36 20 NW 1014,7 - 0,0
20.01.2019 21:00:00 7,5 5,5 23 13 38 20 NW 1014,6 - 0,0
20.01.2019 20:00:00 8,7 5,8 29 16 45 25 NNE 1014,4 - 0,0
20.01.2019 19:00:00 8,9 6,3 36 20 52 28 NNE 1013,9 20 0,0
20.01.2019 18:00:00 8,7 6,3 48 26 58 32 NNE 1012,7 - 0,0
20.01.2019 17:00:00 8,8 6,2 54 29 68 37 N 1011,8 - 0,0
20.01.2019 16:00:00 8,8 6,4 58 31 67 36 N 1010,9 - 0,0
20.01.2019 15:00:00 8,7 5,8 54 29 67 36 N 1011,0 - 0,0
20.01.2019 14:00:00 8,2 5,5 52 28 66 35 NNW 1010,9 - 0,0
20.01.2019 13:00:00 7,5 4,4 45 24 61 33 NW 1011,9 - 0,0
20.01.2019 12:00:00 7,2 4,0 41 22 59 32 NW 1012,0 - 0,0
20.01.2019 11:00:00 6,9 3,7 30 16 46 25 NW 1012,0 - 0,0
20.01.2019 10:00:00 6,8 3,6 29 16 53 29 NW 1011,4 20 0,0
20.01.2019 09:00:00 6,4 3,2 33 18 49 27 NW 1010,4 - 0,0
20.01.2019 08:00:00 6,9 3,7 35 19 44 24 NW 1009,8 - 0,0
20.01.2019 07:00:00 6,9 2,8 26 14 35 19 NW 1009,5 18 0,0
20.01.2019 06:00:00 6,7 2,9 23 12 30 16 NW 1009,1 - 0,0
20.01.2019 05:00:00 6,6 2,5 19 10 23 12 NW 1009,3 - 0,0
20.01.2019 04:00:00 7,3 2,4 9 5 23 12 SW 1009,5 18 0,0
20.01.2019 03:00:00 7,5 2,2 11 6 48 26 S 1009,6 - 0,0
20.01.2019 02:00:00 7,1 2,8 26 14 40 22 SSW 1009,0 - 0,0
20.01.2019 01:00:00 7,1 3,3 13 7 22 12 SSW 1010,0 - 0,0
20.01.2019 00:00:00 7,4 3,6 13 7 37 20 SSW 1010,5 - 0,0
19.01.2019 23:00:00 8,1 3,7 26 14 36 20 S 1010,4 - 0,0
19.01.2019 22:00:00 8,1 3,9 7 4 20 11 S 1010,8 - 0,0
19.01.2019 21:00:00 8,6 4,2 8 4 31 17 S 1011,1 - 0,0
19.01.2019 20:00:00 9,4 4,8 25 13 35 19 S 1011,1 - 0,0
19.01.2019 19:00:00 9,7 4,9 26 14 34 18 S 1011,4 18 0,0
19.01.2019 18:00:00 10,1 6,1 22 12 31 17 S 1011,5 - 0,0
19.01.2019 17:00:00 10,3 5,9 27 14 31 17 SSE 1011,8 - 0,0
19.01.2019 16:00:00 10,1 5,5 19 11 24 13 SSE 1012,6 - 0,0
19.01.2019 15:00:00 10,0 4,8 11 6 16 8 SE 1013,0 - 0,0
19.01.2019 14:00:00 10,2 4,3 6 4 13 7 E 1013,8 - 0,0
19.01.2019 13:00:00 10,6 3,4 6 4 12 7 NE 1014,6 - 0,0
19.01.2019 12:00:00 9,3 3,3 7 4 12 7 N 1015,5 - 0,0
19.01.2019 11:00:00 8,9 3,7 11 6 18 10 NW 1015,9 - 0,0
19.01.2019 10:00:00 7,9 2,8 12 6 16 9 NW 1015,6 20 0,0
19.01.2019 09:00:00 6,6 2,1 15 8 23 12 NW 1015,4 - 0,0
19.01.2019 08:00:00 6,1 2,2 14 8 21 11 NW 1015,1 - 0,0
19.01.2019 07:00:00 7,0 1,5 19 10 23 12 NW 1014,7 - 0,0
19.01.2019 06:00:00 7,1 1,8 21 11 30 16 NW 1014,7 - 0,0
19.01.2019 05:00:00 7,7 2,2 22 12 28 15 NW 1015,0 - 0,0
19.01.2019 04:00:00 7,6 2,1 20 11 30 16 NW 1015,4 - 0,0
19.01.2019 03:00:00 8,0 2,4 25 14 34 18 NW 1015,7 - 0,0
19.01.2019 02:00:00 7,9 2,4 21 11 32 17 NW 1015,8 - 0,0
19.01.2019 01:00:00 7,9 2,6 24 13 29 16 WNW 1016,2 - 0,0
19.01.2019 00:00:00 7,7 2,6 18 10 26 14 WNW 1016,7 - 0,0
18.01.2019 23:00:00 7,4 3,3 18 10 26 14 NW 1016,6 - 0,0
18.01.2019 22:00:00 7,7 3,4 17 9 25 14 NNW 1016,3 - 0,0
18.01.2019 21:00:00 8,2 3,8 16 9 29 16 NNW 1016,4 - 0,0
18.01.2019 20:00:00 8,3 3,5 13 7 30 16 NW 1016,7 - 0,0
18.01.2019 19:00:00 9,1 4,5 26 14 40 21 N 1016,4 20 0,0
18.01.2019 18:00:00 9,4 3,6 31 17 36 19 N 1015,7 - 0,0
18.01.2019 17:00:00 10,0 2,8 25 13 34 19 N 1015,7 - 0,0
18.01.2019 16:00:00 10,6 4,1 26 14 31 17 N 1015,8 20 0,0
18.01.2019 15:00:00 10,8 2,6 21 11 42 23 NNW 1016,0 - 0,0
18.01.2019 14:00:00 10,1 2,0 29 15 45 25 NNW 1016,3 - 0,0
18.01.2019 13:00:00 9,6 2,2 36 20 47 25 NW 1017,2 20 0,0
18.01.2019 12:00:00 9,3 2,4 37 20 50 27 NW 1017,8 - 0,0
18.01.2019 11:00:00 8,5 2,5 35 19 47 25 NW 1018,6 - 0,0
18.01.2019 10:00:00 7,7 2,6 30 16 44 24 NW 1018,7 - 0,0
18.01.2019 09:00:00 6,6 1,9 24 13 42 23 NW 1018,7 - 0,0
18.01.2019 08:00:00 6,8 2,5 30 16 61 33 NW 1018,3 - 0,0
18.01.2019 07:00:00 6,8 2,9 41 22 69 37 NW 1017,4 20 0,0
18.01.2019 06:00:00 8,2 4,4 60 33 71 38 N 1016,4 - 0,0
18.01.2019 05:00:00 8,1 3,7 54 29 63 34 NNW 1016,8 - 0,0
18.01.2019 04:00:00 8,0 3,5 46 25 61 33 NNW 1017,5 20 0,0
18.01.2019 03:00:00 7,8 1,8 36 19 81 44 NW 1018,0 - 0,0
18.01.2019 02:00:00 8,2 2,4 61 33 82 44 NW 1016,7 - 0,0
18.01.2019 01:00:00 8,2 3,2 53 29 70 38 NW 1017,5 - 0,0
18.01.2019 00:00:00 9,1 4,7 46 25 75 40 NW 1018,3 - 0,0
17.01.2019 23:00:00 9,2 4,4 56 31 76 41 NW 1017,6 - 0,0
17.01.2019 22:00:00 9,4 3,8 53 29 74 40 NNW 1017,4 - 0,0
17.01.2019 21:00:00 9,7 4,1 66 36 82 44 NNW 1016,5 - 0,0
17.01.2019 20:00:00 10,0 3,9 51 28 64 35 NNW 1016,5 - 0,0
17.01.2019 19:00:00 10,3 4,2 50 27 66 35 NNW 1016,1 - 0,0
17.01.2019 18:00:00 10,3 3,1 48 26 61 33 NW 1016,3 - 0,0
17.01.2019 17:00:00 10,5 3,7 52 28 69 38 NW 1016,1 - 0,0
17.01.2019 16:00:00 10,8 3,6 37 20 71 38 NW 1016,2 20 0,0
17.01.2019 15:00:00 11,0 3,8 45 24 73 40 NW 1015,6 - 0,0
17.01.2019 14:00:00 11,2 5,3 58 31 77 42 NW 1015,5 - 0,0
17.01.2019 13:00:00 11,5 5,4 60 32 84 45 NNW 1015,8 25 0,0
17.01.2019 12:00:00 11,8 5,6 41 22 54 29 NNW 1016,6 - 0,0
17.01.2019 11:00:00 10,5 4,6 17 9 26 14 NW 1016,9 - 0,0
17.01.2019 10:00:00 9,6 5,0 8 5 18 10 NNW 1016,4 25 0,0
17.01.2019 09:00:00 10,6 3,1 8 4 16 8 SW 1015,9 - 0,0
17.01.2019 08:00:00 8,9 3,3 3 2 9 5 S 1015,9 - 0,0
17.01.2019 07:00:00 6,9 3,3 6 3 14 7 NNW 1015,9 18 0,0
17.01.2019 06:00:00 9,8 2,6 11 6 25 14 NW 1015,4 - 0,0
17.01.2019 05:00:00 10,9 2,5 19 10 30 16 W 1015,4 - 0,0
17.01.2019 04:00:00 10,1 3,1 22 12 33 18 WNW 1015,9 18 0,0
17.01.2019 03:00:00 9,4 5,8 7 4 25 13 N 1016,6 - 0,0
17.01.2019 02:00:00 9,7 5,3 15 8 28 15 WNW 1016,7 - 0,0
17.01.2019 01:00:00 9,8 4,6 19 10 27 15 WNW 1017,1 - 0,0
17.01.2019 00:00:00 9,4 4,6 24 13 34 19 WNW 1017,3 - 0,0
16.01.2019 23:00:00 9,1 4,7 26 14 34 18 WNW 1017,2 - 0,0
16.01.2019 22:00:00 8,8 4,8 24 13 31 17 WNW 1017,1 - 0,0
16.01.2019 21:00:00 9,0 5,4 27 15 34 18 WNW 1016,6 - 0,0
16.01.2019 20:00:00 8,5 5,6 21 11 24 13 WNW 1016,6 - 0,0
16.01.2019 19:00:00 8,8 6,2 17 9 23 12 WNW 1016,5 12 0,0
16.01.2019 18:00:00 8,5 5,9 21 12 25 14 NW 1016,4 - 0,0
16.01.2019 17:00:00 9,1 6,2 15 8 24 13 NW 1016,6 - 0,0
16.01.2019 16:00:00 9,1 6,0 21 11 27 15 NW 1016,7 15 0,0
16.01.2019 15:00:00 8,8 5,7 22 12 34 19 NW 1016,7 - 0,0
16.01.2019 14:00:00 8,6 5,5 24 13 34 18 NW 1017,0 - 0,0
16.01.2019 13:00:00 8,7 5,4 24 13 37 20 NW 1017,7 15 0,0
16.01.2019 12:00:00 8,6 4,8 30 16 37 20 WNW 1018,3 - 0,0
16.01.2019 11:00:00 8,4 4,6 24 13 31 17 WNW 1018,8 - 0,0
16.01.2019 10:00:00 8,1 4,7 23 13 31 17 WNW 1018,8 - 0,0
16.01.2019 09:00:00 8,0 4,8 21 12 25 14 NW 1018,7 - 0,0
16.01.2019 08:00:00 8,1 4,9 10 5 14 8 NW 1018,7 - 0,0
16.01.2019 07:00:00 8,4 5,1 5 3 16 9 WNW 1018,7 20 0,0
16.01.2019 06:00:00 7,7 4,5 11 6 16 8 NW 1018,8 - 0,0
16.01.2019 05:00:00 8,5 5,2 5 3 10 5 N 1019,1 - 0,0
16.01.2019 04:00:00 8,8 5,2 3 1 6 3 S 1019,5 - 0,0
16.01.2019 03:00:00 8,6 4,8 2 1 19 11 N 1020,0 - 0,0

tt = Température de l'air
td = dewpoint
ff = Vitesse du vent
fx = gusts
dd = Direction du vent
ppp = reduced air pressure
vv = visibility
rr = Quantités de précipitations

stations d'obs. à proximité